AMX203 MMPR-MMMX

Flight info

Callsign AMX203
Flight time N/A
Altitude 33000
Route VOLAT1D VOLAT UT119 ESPOS ESPOS4B
Aircraft B738/M-SDE2E3FGHIRWXY/LB1

Departure

Time 2026-04-21 01:43
Airport Puerto Vallarta International Airport (MMPR)

Arrival

Time N/A
Airport Mexico City Benito Juárez International Airport (MMMX)
Time Latitude Longitude Altitude Speed Heading
2026-04-21 01:26 20.67891 -105.24819 27 ft 0 kts 228°
2026-04-21 01:36 20.67906 -105.24800 27 ft 4 kts 240°
2026-04-21 01:36 20.67915 -105.24774 27 ft 4 kts 270°
2026-04-21 01:36 20.67909 -105.24752 27 ft 2 kts 317°
2026-04-21 01:36 20.67908 -105.24752 27 ft 3 kts 318°
2026-04-21 01:38 20.67914 -105.24757 27 ft 4 kts 318°
2026-04-21 01:39 20.67961 -105.24784 27 ft 10 kts 345°
2026-04-21 01:39 20.68034 -105.24784 27 ft 11 kts 12°
2026-04-21 01:39 20.68103 -105.24750 28 ft 11 kts 31°
2026-04-21 01:39 20.68172 -105.24719 28 ft 11 kts 17°
2026-04-21 01:40 20.68249 -105.24695 28 ft 14 kts 16°
2026-04-21 01:40 20.68356 -105.24662 28 ft 17 kts 16°
2026-04-21 01:40 20.68474 -105.24616 28 ft 19 kts 34°
2026-04-21 01:40 20.68564 -105.24521 28 ft 18 kts 46°
2026-04-21 01:41 20.68649 -105.24425 29 ft 17 kts 49°
2026-04-21 01:41 20.68728 -105.24331 29 ft 17 kts 48°
2026-04-21 01:41 20.68815 -105.24260 29 ft 16 kts
2026-04-21 01:41 20.68900 -105.24314 28 ft 10 kts 318°
2026-04-21 01:42 20.68903 -105.24387 29 ft 12 kts 238°
2026-04-21 01:42 20.68778 -105.24542 30 ft 60 kts 227°
2026-04-21 01:42 20.68309 -105.25073 27 ft 134 kts 227°
2026-04-21 01:42 20.67557 -105.25930 318 ft 169 kts 227°
2026-04-21 01:43 20.66745 -105.26853 1222 ft 173 kts 226°
2026-04-21 01:43 20.65909 -105.27764 2171 ft 171 kts 225°
2026-04-21 01:43 20.65056 -105.28716 2752 ft 191 kts 227°
2026-04-21 01:43 20.64099 -105.29818 3210 ft 208 kts 228°
2026-04-21 01:44 20.63097 -105.30963 3819 ft 214 kts 227°
2026-04-21 01:44 20.62073 -105.32133 4460 ft 216 kts 227°
2026-04-21 01:44 20.61041 -105.33313 5133 ft 219 kts 227°
2026-04-21 01:44 20.59964 -105.34478 5780 ft 222 kts 217°
2026-04-21 01:45 20.58548 -105.35038 6367 ft 225 kts 179°
2026-04-21 01:45 20.57023 -105.34624 6998 ft 226 kts 155°
2026-04-21 01:45 20.55611 -105.33860 7610 ft 230 kts 152°
2026-04-21 01:45 20.54213 -105.33047 8168 ft 234 kts 151°
2026-04-21 01:46 20.52781 -105.32211 8766 ft 236 kts 151°
2026-04-21 01:46 20.51333 -105.31373 9364 ft 238 kts 151°
2026-04-21 01:46 20.49874 -105.30536 9987 ft 238 kts 151°
2026-04-21 01:46 20.48410 -105.29700 10614 ft 239 kts 151°
2026-04-21 01:47 20.46946 -105.28869 11258 ft 238 kts 151°
2026-04-21 01:47 20.45489 -105.28045 11887 ft 237 kts 152°
2026-04-21 01:47 20.44032 -105.27221 12495 ft 237 kts 152°
2026-04-21 01:47 20.42567 -105.26395 12996 ft 241 kts 153°
2026-04-21 01:48 20.41174 -105.25374 13387 ft 251 kts 131°
2026-04-21 01:48 20.40410 -105.23663 13622 ft 270 kts 99°
2026-04-21 01:48 20.40263 -105.21601 13783 ft 288 kts 93°
2026-04-21 01:48 20.40193 -105.19415 14098 ft 300 kts 92°
2026-04-21 01:49 20.40132 -105.17104 14239 ft 324 kts 92°
2026-04-21 01:49 20.40062 -105.14624 14429 ft 346 kts 92°
2026-04-21 01:49 20.39979 -105.11983 14591 ft 366 kts 92°
2026-04-21 01:49 20.39886 -105.09210 14719 ft 384 kts 92°
2026-04-21 01:50 20.39782 -105.06306 14892 ft 399 kts 92°
2026-04-21 01:50 20.39671 -105.03322 15351 ft 405 kts 92°
2026-04-21 01:50 20.39558 -105.00313 15935 ft 407 kts 92°
2026-04-21 01:50 20.39442 -104.97285 16491 ft 410 kts 93°
2026-04-21 01:51 20.39325 -104.94234 17011 ft 414 kts 93°
2026-04-21 01:51 20.39205 -104.91159 17529 ft 417 kts 93°
2026-04-21 01:51 20.39086 -104.88064 18050 ft 419 kts 93°
2026-04-21 01:51 20.38964 -104.84949 18533 ft 422 kts 93°
2026-04-21 01:52 20.38841 -104.81815 18993 ft 426 kts 93°
2026-04-21 01:52 20.38588 -104.75463 19888 ft 432 kts 92°
2026-04-21 01:52 20.38458 -104.72255 20312 ft 435 kts 92°
2026-04-21 01:53 20.38327 -104.69021 20685 ft 438 kts 92°
2026-04-21 01:53 20.38190 -104.65763 21029 ft 442 kts 93°
2026-04-21 01:53 20.38034 -104.62482 21469 ft 445 kts 92°
2026-04-21 01:53 20.37907 -104.59190 21859 ft 448 kts 92°
2026-04-21 01:54 20.37766 -104.55868 22245 ft 448 kts 92°
2026-04-21 01:54 20.37665 -104.52536 22475 ft 454 kts 90°
2026-04-21 01:54 20.37561 -104.49182 22876 ft 451 kts 92°
2026-04-21 01:54 20.37363 -104.45825 23055 ft 456 kts 94°
2026-04-21 01:55 20.37207 -104.42443 23391 ft 456 kts 90°
2026-04-21 01:55 20.37083 -104.39064 23674 ft 459 kts 92°
2026-04-21 01:55 20.36938 -104.35644 23893 ft 460 kts 91°
2026-04-21 01:55 20.36807 -104.32222 24026 ft 464 kts 92°
2026-04-21 01:56 20.36451 -104.28797 24221 ft 468 kts 103°
2026-04-21 01:56 20.35539 -104.25486 24702 ft 465 kts 108°
2026-04-21 01:56 20.34523 -104.22208 24987 ft 468 kts 109°
2026-04-21 01:56 20.33470 -104.18913 25215 ft 471 kts 109°
2026-04-21 01:57 20.32411 -104.15593 25473 ft 474 kts 109°
2026-04-21 01:57 20.31361 -104.12263 25760 ft 475 kts 108°
2026-04-21 01:57 20.30325 -104.08910 26030 ft 477 kts 107°
2026-04-21 01:57 20.29324 -104.05533 26280 ft 480 kts 108°
2026-04-21 01:58 20.28285 -104.02155 26559 ft 481 kts 108°
2026-04-21 01:58 20.27238 -103.98768 26861 ft 482 kts 108°
2026-04-21 01:58 20.26196 -103.95359 27121 ft 484 kts 108°
2026-04-21 01:58 20.25149 -103.91953 27367 ft 486 kts 108°
2026-04-21 01:59 20.24093 -103.88522 27585 ft 488 kts 108°
2026-04-21 01:59 20.23049 -103.85128 27823 ft 490 kts 108°
2026-04-21 01:59 20.21989 -103.81676 28067 ft 491 kts 108°
2026-04-21 01:59 20.20935 -103.78228 28210 ft 492 kts 109°
2026-04-21 02:00 20.19856 -103.74750 28374 ft 496 kts 108°
2026-04-21 02:00 20.18782 -103.71257 28633 ft 496 kts 108°
2026-04-21 02:00 20.17710 -103.67763 28862 ft 498 kts 108°
2026-04-21 02:00 20.16635 -103.64261 29083 ft 499 kts 109°
2026-04-21 02:01 20.15556 -103.60752 29336 ft 499 kts 109°
2026-04-21 02:01 20.14477 -103.57243 29665 ft 498 kts 109°
2026-04-21 02:01 20.13401 -103.53750 30031 ft 496 kts 109°
2026-04-21 02:01 20.12322 -103.50257 30318 ft 496 kts 109°
2026-04-21 02:02 20.11244 -103.46769 30560 ft 497 kts 109°
2026-04-21 02:02 20.10161 -103.43276 30784 ft 498 kts 109°
2026-04-21 02:02 20.09078 -103.39775 31044 ft 498 kts 109°
2026-04-21 02:02 20.07996 -103.36277 31347 ft 498 kts 109°
2026-04-21 02:03 20.06914 -103.32785 31654 ft 497 kts 109°
2026-04-21 02:03 20.05830 -103.29289 31951 ft 497 kts 109°
2026-04-21 02:03 20.04749 -103.25801 32190 ft 497 kts 109°
2026-04-21 02:03 20.03663 -103.22307 32459 ft 498 kts 109°
2026-04-21 02:04 20.02576 -103.18810 32773 ft 497 kts 109°
2026-04-21 02:04 20.01493 -103.15325 33090 ft 496 kts 110°
2026-04-21 02:04 20.00407 -103.11837 33381 ft 496 kts 110°
2026-04-21 02:04 19.99323 -103.08357 33644 ft 496 kts 110°
2026-04-21 02:05 19.98240 -103.04881 33962 ft 495 kts 110°
2026-04-21 02:05 19.97160 -103.01415 34302 ft 492 kts 110°
2026-04-21 02:05 19.96083 -102.97966 34610 ft 491 kts 110°
2026-04-21 02:05 19.95003 -102.94524 34861 ft 491 kts 111°
2026-04-21 02:06 19.93821 -102.91123 35109 ft 490 kts 114°
2026-04-21 02:06 19.92553 -102.87768 35400 ft 489 kts 115°
2026-04-21 02:06 19.91255 -102.84439 35697 ft 487 kts 115°
2026-04-21 02:06 19.89956 -102.81114 35960 ft 486 kts 115°
2026-04-21 02:07 19.88689 -102.77841 36200 ft 485 kts 115°
2026-04-21 02:07 19.87416 -102.74520 36422 ft 485 kts 115°
2026-04-21 02:07 19.86133 -102.71152 36614 ft 486 kts 115°
2026-04-21 02:07 19.84872 -102.67831 36897 ft 483 kts 115°
2026-04-21 02:08 19.83639 -102.64582 37214 ft 480 kts 115°
2026-04-21 02:08 19.81116 -102.57955 37203 ft 479 kts 115°
2026-04-21 02:09 19.78644 -102.51485 37202 ft 473 kts 116°
2026-04-21 02:09 19.76163 -102.45024 37216 ft 472 kts 116°
2026-04-21 02:10 19.73682 -102.38569 37219 ft 472 kts 116°
2026-04-21 02:10 19.71197 -102.32109 37227 ft 473 kts 116°
2026-04-21 02:11 19.68696 -102.25610 37230 ft 473 kts 116°
2026-04-21 02:11 19.66568 -102.20084 37234 ft 472 kts 116°
2026-04-21 02:12 19.64081 -102.13631 37233 ft 472 kts 116°
2026-04-21 02:12 19.61591 -102.07184 37246 ft 473 kts 116°
2026-04-21 02:13 19.59094 -102.00728 37235 ft 473 kts 116°
2026-04-21 02:13 19.56593 -101.94270 37238 ft 474 kts 116°
2026-04-21 02:14 19.54086 -101.87803 37235 ft 474 kts 116°
2026-04-21 02:14 19.51574 -101.81333 37248 ft 475 kts 116°
2026-04-21 02:15 19.49057 -101.74855 37245 ft 475 kts 116°
2026-04-21 02:15 19.46537 -101.68372 37248 ft 476 kts 116°
2026-04-21 02:16 19.44013 -101.61889 37245 ft 476 kts 116°
2026-04-21 02:16 19.41483 -101.55401 37245 ft 476 kts 116°
2026-04-21 02:17 19.38953 -101.48918 37244 ft 477 kts 116°
2026-04-21 02:17 19.36418 -101.42432 37237 ft 477 kts 116°
2026-04-21 02:18 19.33884 -101.35953 37256 ft 476 kts 116°
2026-04-21 02:18 19.31345 -101.29471 37247 ft 477 kts 115°
2026-04-21 02:19 19.28805 -101.22987 37246 ft 477 kts 115°
2026-04-21 02:19 19.26261 -101.16502 37250 ft 477 kts 115°
2026-04-21 02:20 19.23734 -101.10071 37251 ft 476 kts 115°
2026-04-21 02:20 19.21191 -101.03604 37254 ft 476 kts 115°
2026-04-21 02:21 19.18645 -100.97135 37247 ft 476 kts 115°
2026-04-21 02:21 19.16102 -100.90684 37263 ft 475 kts 115°
2026-04-21 02:22 19.13559 -100.84238 37273 ft 475 kts 116°
2026-04-21 02:22 19.11010 -100.77788 37265 ft 476 kts 115°
2026-04-21 02:23 19.08385 -100.71358 37298 ft 476 kts 116°
2026-04-21 02:23 19.05832 -100.64869 37279 ft 477 kts 114°
2026-04-21 02:24 19.03411 -100.58501 37272 ft 458 kts 116°
2026-04-21 02:24 19.01332 -100.53331 37264 ft 453 kts 116°
2026-04-21 02:25 18.98907 -100.47262 37268 ft 445 kts 116°
2026-04-21 02:25 18.96517 -100.41257 37273 ft 442 kts 116°
2026-04-21 02:26 18.94130 -100.35262 36880 ft 449 kts 115°
2026-04-21 02:26 18.92916 -100.32218 36414 ft 450 kts 115°
2026-04-21 02:26 18.91702 -100.29161 35825 ft 451 kts 115°
2026-04-21 02:26 18.90544 -100.26130 35194 ft 454 kts 116°
2026-04-21 02:27 18.89233 -100.23010 34612 ft 461 kts 117°
2026-04-21 02:27 18.87956 -100.19955 33991 ft 463 kts 114°
2026-04-21 02:27 18.86774 -100.16786 33286 ft 464 kts 114°
2026-04-21 02:27 18.85535 -100.13636 32624 ft 466 kts 115°
2026-04-21 02:28 18.84265 -100.10480 31911 ft 468 kts 115°
2026-04-21 02:28 18.82983 -100.07311 31190 ft 470 kts 115°
2026-04-21 02:28 18.81710 -100.04133 30446 ft 473 kts 115°
2026-04-21 02:28 18.80418 -100.00937 29660 ft 474 kts 116°
2026-04-21 02:29 18.79114 -99.97722 28972 ft 478 kts 114°
2026-04-21 02:29 18.77866 -99.94485 28381 ft 477 kts 114°
2026-04-21 02:29 18.76547 -99.91285 27827 ft 474 kts 115°
2026-04-21 02:29 18.75206 -99.88137 27229 ft 468 kts 115°
2026-04-21 02:30 18.74216 -99.84892 26614 ft 467 kts 96°
2026-04-21 02:30 18.74226 -99.81491 26128 ft 461 kts 83°
2026-04-21 02:30 18.74842 -99.78205 25612 ft 454 kts 70°
2026-04-21 02:30 18.76050 -99.75172 25172 ft 443 kts 63°
2026-04-21 02:31 18.77352 -99.72284 24694 ft 431 kts 64°
2026-04-21 02:31 18.78561 -99.69446 24266 ft 418 kts 65°
2026-04-21 02:31 18.79755 -99.66702 23861 ft 407 kts 62°
2026-04-21 02:31 18.80960 -99.64044 23471 ft 396 kts 63°
2026-04-21 02:32 18.82106 -99.61435 23121 ft 388 kts 64°
2026-04-21 02:32 18.83182 -99.58850 22739 ft 382 kts 65°
2026-04-21 02:32 18.84238 -99.56294 22406 ft 378 kts 64°
2026-04-21 02:32 18.85343 -99.53810 22023 ft 370 kts 63°
2026-04-21 02:33 18.86448 -99.51369 21679 ft 366 kts 63°
2026-04-21 02:33 18.87495 -99.48923 21354 ft 365 kts 66°
2026-04-21 02:33 18.88440 -99.46450 21026 ft 361 kts 67°
2026-04-21 02:33 18.89434 -99.44039 20638 ft 357 kts 65°
2026-04-21 02:34 18.90425 -99.41663 20325 ft 353 kts 67°
2026-04-21 02:34 18.91454 -99.39303 19983 ft 351 kts 63°
2026-04-21 02:34 18.92475 -99.36992 19493 ft 356 kts 65°
2026-04-21 02:34 18.93465 -99.34593 18992 ft 353 kts 66°
2026-04-21 02:35 18.94451 -99.32252 18587 ft 347 kts 65°
2026-04-21 02:35 18.95445 -99.29953 18259 ft 342 kts 66°
2026-04-21 02:35 18.96041 -99.27564 17892 ft 337 kts 91°
2026-04-21 02:35 18.95672 -99.25145 17900 ft 339 kts 107°
2026-04-21 02:36 18.94642 -99.22914 17801 ft 338 kts 127°
2026-04-21 02:36 18.93211 -99.20972 17796 ft 335 kts 128°
2026-04-21 02:36 18.91832 -99.19016 17802 ft 330 kts 125°
2026-04-21 02:36 18.90478 -99.17043 17799 ft 332 kts 127°
2026-04-21 02:37 18.89101 -99.15075 17797 ft 334 kts 123°
2026-04-21 02:37 18.88232 -99.12824 17813 ft 333 kts 101°
2026-04-21 02:37 18.88132 -99.10428 17636 ft 327 kts 77°
2026-04-21 02:37 18.89043 -99.08328 17568 ft 309 kts 51°
2026-04-21 02:38 18.90541 -99.06784 17333 ft 297 kts 36°
2026-04-21 02:38 18.92351 -99.05769 16952 ft 291 kts 18°
2026-04-21 02:38 18.94316 -99.05279 16575 ft 288 kts
2026-04-21 02:38 18.96298 -99.04944 16213 ft 288 kts
2026-04-21 02:39 18.98268 -99.04574 15809 ft 287 kts
2026-04-21 02:39 19.00234 -99.04290 15438 ft 284 kts
2026-04-21 02:39 19.02165 -99.03960 15136 ft 277 kts
2026-04-21 02:39 19.04036 -99.03625 14871 ft 269 kts
2026-04-21 02:40 19.05889 -99.03350 14561 ft 271 kts
2026-04-21 02:40 19.07735 -99.03026 14281 ft 267 kts 13°
2026-04-21 02:40 19.09539 -99.02601 13964 ft 264 kts
2026-04-21 02:40 19.11351 -99.02330 13746 ft 262 kts
2026-04-21 02:41 19.13146 -99.02066 13497 ft 258 kts
2026-04-21 02:41 19.14892 -99.01737 13343 ft 252 kts 11°
2026-04-21 02:41 19.16623 -99.01476 13167 ft 253 kts
2026-04-21 02:41 19.18335 -99.01902 12990 ft 258 kts 332°
2026-04-21 02:42 19.19760 -99.03031 12837 ft 258 kts 318°
2026-04-21 02:42 19.21072 -99.04324 12692 ft 255 kts 318°
2026-04-21 02:42 19.22352 -99.05673 12543 ft 256 kts 318°
2026-04-21 02:42 19.23620 -99.06916 12476 ft 247 kts 316°
2026-04-21 02:43 19.24797 -99.08223 12398 ft 249 kts 309°
2026-04-21 02:43 19.25852 -99.09715 12067 ft 255 kts 307°
2026-04-21 02:43 19.26880 -99.11199 11801 ft 247 kts 308°
2026-04-21 02:43 19.27875 -99.12649 11511 ft 239 kts 309°
2026-04-21 02:44 19.28870 -99.14033 11218 ft 232 kts 309°
2026-04-21 02:44 19.29842 -99.15344 10926 ft 222 kts 310°
2026-04-21 02:44 19.30759 -99.16592 10661 ft 210 kts 309°
2026-04-21 02:44 19.31638 -99.17783 10440 ft 202 kts 311°
2026-04-21 02:45 19.32578 -99.18858 10206 ft 199 kts 327°
2026-04-21 02:45 19.33846 -99.19386 10020 ft 198 kts 354°
2026-04-21 02:45 19.35227 -99.19328 9813 ft 199 kts 12°
2026-04-21 02:45 19.36515 -99.18797 9585 ft 198 kts 29°
2026-04-21 02:46 19.37579 -99.17898 9336 ft 197 kts 55°
2026-04-21 02:46 19.38250 -99.16642 9140 ft 196 kts 60°
2026-04-21 02:46 19.38913 -99.15379 8856 ft 193 kts 60°
2026-04-21 02:46 19.39552 -99.14219 8621 ft 178 kts 60°
2026-04-21 02:47 19.40157 -99.13117 8329 ft 171 kts 62°
2026-04-21 02:47 19.40766 -99.12033 8074 ft 172 kts 60°
2026-04-21 02:47 19.41361 -99.10923 7874 ft 177 kts 62°
2026-04-21 02:47 19.42001 -99.09806 7657 ft 180 kts 61°
2026-04-21 02:48 19.42659 -99.08652 7397 ft 185 kts 60°
2026-04-21 02:48 19.43310 -99.07521 7493 ft 178 kts 59°
2026-04-21 02:48 19.43545 -99.07108 7660 ft 183 kts 60°